www.pogodaiklimat.ru

Погода и климат >> Архив погоды >> Мексика >> Кульякан


ПОГОДА в Кульякане

  • Прогноз погоды в Кульякане
  • Монитор погоды в Кульякане

АРХИВ ПОГОДЫ в Кульякане

Время (UTC), дата Ветер
(напр.,м/с)
 
Видим.   Явления Облачность Т
(С)
Тd
(С)
f
(%)
Тe
(С)
Тes
(С)
Комфортность P
(гПа)
Po
(гПа)
Тmin
(С)
Tmax
(С)
R
(мм)
R24
(мм)
S
(см)
12 13.06 В 1 16 км ясно +25.0 +24.5 97 +35 +35 очень
душно
1014.2 1009.8 +24.6 +36.0
18 13.06 В 1 16 км ясно +33.0 +21.0 49 +40 +64 опасность
солнечного
удара
1012.9 1008.0 +24.0 +33.2
00 14.06 Ю 1 16 км ясно +33.4 +19.4 44 +39 +44 очень
душно
1010.7 1006.4 +24.0 +36.4
03 14.06 В 1 16 км ясно +27.4 +20.8 67 +34 +34 очень
душно
1012.3 1008.0
06 14.06 В 1 16 км ясно +26.0 +22.4 81 +34 +34 очень
душно
1013.2 1008.8 +36.4
09 14.06 В 1 16 км ясно +24.0 +21.8 88 +31 +31 очень
душно
1013.5 1009.0
18 14.06 ЮЗ 1 16 км ясно +34.0 +21.0 47 +41 +66 опасность
перегрева
1017.4 1013.0 +24.2 +34.1
21 14.06 ЮЗ 2 16 км ясно +35.5 +19.5 39 +41 +59 опасность
перегрева
1015.9 1011.5
12 15.06 штиль 0 16 км ясно +24.2 +23.2 94 +32 +32 очень
душно
1014.0 1009.6 +24.1 +36.6
18 15.06 ЮЗ 2 16 км ясно +35.0 +17.5 36 +39 +59 опасность
солнечного
удара
1014.4 1010.0 +24.1 +35.8
21 15.06 З 2 16 км ясно +34.2 +19.0 41 +39 +57 опасность
солнечного
удара
1013.6 1009.2
00 16.06 СЗ 2 16 км ясно +31.2 +19.5 50 +37 +41 очень
душно
1013.0 1008.7 +24.1 +36.4
06 16.06 ЮВ 1 16 км ясно +24.8 +20.9 79 +31 +31 очень
душно
1014.1 1009.8 +24.1 +36.4
09 16.06 ЮВ 1 16 км ясно +23.0 +19.5 81 +30 +30 очень
душно
1013.4 1009.0
12 16.06 штиль 0 16 км ясно +22.6 +21.5 94 +30 +30 очень
душно
1013.8 1009.4 +21.4 +36.4
03 17.06 В 1 16 км ясно +28.2 +18.1 54 +33 +33 очень
душно
1012.5 1008.2
15 17.06 ЮВ 1 16 км ясно +28.6 +19.7 59 +35 +43 очень
душно
1015.2 1010.8
21 17.06 З 2 16 км ясно +35.0 +18.6 38 +39 +58 опасность
солнечного
удара
1014.2 1009.8
00 18.06 СЗ 2 16 км ясно +33.0 +18.7 43 +38 +42 очень
душно
1014.8 1010.4 +21.4 +36.8
03 18.06 ЮЗ 1 16 км ясно +28.6 +20.7 62 +35 +35 очень
душно
1014.9 1010.6
06 18.06 ЮВ 1 16 км ясно +24.2 +21.1 83 +31 +31 очень
душно
1015.4 1011.0 +36.4
09 18.06 ЮВ 1 16 км ясно +22.2 +20.5 90 +29 +29 очень
душно
1014.8 1010.4
12 18.06 штиль 0 16 км ясно +21.6 +19.2 86 +27 +27 душно 1014.4 1010.0 +20.6 +36.4
18 18.06 Ю 2 <100 м ясно +36.6 +20.0 38 +42 +63 опасность
перегрева
1015.1 1010.4 +20.0 +37.2
21 18.06 ЮЗ 2 16 км ясно +36.2 +18.0 34 +40 +58 опасность
солнечного
удара
1013.1 1008.7
00 19.06 ЮЗ 2 16 км ясно +34.4 +18.6 39 +39 +43 очень
душно
1011.6 1007.3 +20.6 +37.2
03 19.06 ЮЗ 1 16 км ясно +29.0 +18.2 52 +34 +34 очень
душно
1013.0 1008.7
06 19.06 штиль 0 16 км ясно +25.5 +20.2 73 +31 +31 очень
душно
1014.9 1010.6 +20.6 +37.2
09 19.06 штиль 0 16 км ясно +24.0 +22.3 90 +31 +31 очень
душно
1015.3 1010.8
12 19.06 штиль 0 16 км ясно +23.5 +22.8 96 +31 +31 очень
душно
1015.0 1010.5 +23.2 +37.2
18 19.06 В 1 16 км ясно +36.0 +15.8 30 +38 +62 опасность
солнечного
удара
1015.7 1011.3 +23.2 +36.4
21 19.06 В 1 16 км ясно +37.4 +11.8 22 +37 +58 опасность
солнечного
удара
1015.0 1010.6
00 20.06 В 1 16 км ясно +34.8 +15.7 32 +37 +41 очень
душно
1013.9 1009.6 +23.2 +38.2
06 20.06 В 1 16 км ясно +25.4 +20.8 76 +32 +32 очень
душно
1012.8 1008.5 +23.2 +38.2

 

Местоположение метеостанции Кульякан (Мексика): широта 24.80 долгота -107.40 высота над уровнем моря 39 м.

В архиве по умолчанию представлена погода в Кульякане за последнюю неделю. Архивные данные за месяц целиком и за предыдущие месяцы, начиная с января 2011 года, Вы можете получить, выбрав интересующий диапазон дат из раскрывающегося списка и нажав кнопку "Ввод!".


*Определитесь, кто Вы:
робот инопланетянин человек

Внимание! Время в таблицах - всемирное. Для получения местного времени необходимо прибавить поправку, которая равна -7 ч.

Смотрите также архив погоды в соседних городах и на ближайших метеорологических станциях:

Погода в Тепеуанесе (Мексика) (180 км)
Погода в Мазатлане (Мексика) (205 км)
Погода в Чойсе (Мексика) (229 км)
Погода в Дуранго (Мексика) (296 км)
Погода в Паррале (Мексика) (298 км)
Погода в Ла-Пасе (Мексика) (302 км)
Погода в Сьюдад-Обрегоне (Мексика) (377 км)
Погода в Сомбререте (Мексика) (407 км)
Погода в Торреоне (Мексика) (411 км)
Погода в Лорето (Мексика) (415 км)

Пояснения к столбцам:

Ветер - указаны скорость ветра в м/с - средняя за 10 мин, порывы в срок и между сроками (в фигурных скобках) и направление, откуда дует ветер: С - северный, СВ - северо-восточный, В - восточный, ЮВ - юго-восточный, Ю - южный, ЮЗ - юго-западный, З - западный, СЗ - северо-западный.
Видимость - горизонтальная дальность видимости в метрах или километрах. При видимости от 1 до 10 км при отсутствии осадков обычно наблюдается дымка, при ухудшении видимости до 1 км и менее - туман. В сухую погоду видимость может ухудшаться дымом, пылью или мглою.
Явления - указаны атмосферные явления, наблюдавшиеся в срок или в последний час перед сроком; фигурными скобками обозначены явления, наблюдавшиеся между сроками (за 1-3 часа до срока); квадратными скобками обозначены град или гололедные отложения с указанием их диаметра в мм.
Облачность - указаны через наклонную черту общая и нижняя облачность в баллах и высота нижней границы облаков в метрах; квадратными скобками обозначены формы облаков: Ci - перистые, Cs - перисто-слоистые, Cc - перисто-кучевые, Ac - высококучевые, As - высокослоистые, Sc - слоисто-кучевые, Ns - слоисто-дождевые, Cu - кучевые, Cb - кучево-дождевые. Подробнее классификацию облаков см. в Атласе облаков (PDF).
T - Температура воздуха - температура, измеренная на высоте 2 м над землей.
Td - Температура точки росы - температура, при понижении до которой содержащийся в воздухе водяной пар достигнет насыщения.
f - Относительная влажность воздуха - влажноcть воздуха, измеренная на высоте 2 м над землей.
Te - Эффективная температура - температура, которую ощущает одетый по сезону человек в тени. Характеристика душности погоды. При расчете учитывается влияние влажности воздуха и скорости ветра на теплоощущения человека.
Tes - Эффективная температура на солнце - температура, которую ощущает человек, с поправкой на солнечный нагрев. Характеристика знойности погоды. Зависит от высоты солнца над горизонтом, облачности и скорости ветра. Ночью, в пасмурную погоду, а также при ветре 12 м/с и более поправка равна нулю.
P - Атмосферное давление - приведенное к уровню моря атмосферное давление.
Po - Атмосферное давление - измеренное на уровне метеостанции атмосферное давление.
Tmin - Минимальная температура - минимум температуры воздуха на высоте 2 м над землей.
Tmax - Максимальная температура - максимум температуры воздуха на высоте 2 м над землей.
R - Количество осадков - Количество выпавших осадков за период времени, мм. При наведении курсора мыши на число - период времени, за который выпало указанное количество осадков.
R24 - Количество осадков - Количество выпавших осадков за 24 часа, мм.
S - Снежный покров - Высота снежного покрова, см. При наведении курсора мыши на число - состояние снежного покрова и степень покрытия местности в баллах.